Regional Weather Roundup
Issued by NWS

Home | Current Version | Previous Version | Graphics & Text | Print | Product List | Glossary On
Versions: 1 2 3 4 5 6 7 8 9 10 11 12 13 14 15 16 17 18 19 20 21 22 23 24 25 26 27
000
ASUS45 KTFX 261710
RWRMT
MONTANA REGIONAL WEATHER ROUNDUP
NATIONAL WEATHER SERVICE GREAT FALLS MT
1100 AM MDT FRI MAY 26 2017

NOTE: "FAIR" INDICATES FEW OR NO CLOUDS BELOW 12000 FEET WITH NO
SIGNIFICANT WEATHER AND/OR OBSTRUCTIONS TO VISIBILITY.

MTZ001>007-043-261800-
WEST OF THE DIVIDE

CITY           SKY/WX    TMP DP  RH WIND       PRES   REMARKS
KALISPELL      SUNNY     57  43  59 NE6       29.94F
MISSOULA       SUNNY     60  35  39 CALM      29.93F
BUTTE          CLOUDY    50  30  46 NW6       29.94F
MULLAN PASS    MOSUNNY   46  33  60 NW3       29.98S
ANACONDA         N/A     54  28  37 NE6       29.94F
DEER LODGE       N/A     54  34  47 SW5       29.96F
EUREKA           N/A     54  39  58 W3        29.96F
HAMILTON         N/A     57  34  41 N8        29.92F
$$

MTZ008-052>055-261800-
SOUTHWEST MONTANA

CITY           SKY/WX    TMP DP  RH WIND       PRES   REMARKS
BOZEMAN        CLOUDY    55  41  59 N6        29.92F
DILLON         CLOUDY    53  32  44 NE15      29.91R
W YELLOWSTONE  CLOUDY    43  28  56 N9        29.91F
ENNIS          SUNNY     50  32  50 N20G26    29.94S
THREE FORKS      N/A     56  36  47 N1        29.93F
TWIN BRIDGES     N/A     55  31  40 NW20      29.90S
$$

MTZ009-010-012-014-046-048-049-054-261800-
EAST SLOPES AND CENTRAL MONTANA

CITY           SKY/WX    TMP DP  RH WIND       PRES   REMARKS
CUT BANK       SUNNY     56  35  45 NW6       29.92F
GREAT FALLS    SUNNY     57  37  47 VRB5      29.95F
MALMSTROM AFB  SUNNY     55  36  49 NW3       29.94F
HELENA         SUNNY     57  37  47 W3        29.93F
CHOTEAU          N/A     55  34  44 CALM      29.95F
CONRAD           N/A     58  46  64 W9        29.97S
$$

MTZ011-013-016-021-045-047-050-051-261800-
NORTH CENTRAL MONTANA

CITY           SKY/WX    TMP DP  RH WIND       PRES   REMARKS
HAVRE          MOSUNNY   60  41  49 SW15      29.89F
LEWISTOWN      PTSUNNY   53  36  52 W7        29.94F
N BAR RANCH      N/A     55  32  41 NW15      29.96F
CHINOOK          N/A     61  39  44 W15       29.88F
FORT BENTON      N/A     59  39  47 CALM        N/A
$$

MTZ017>020-022>027-061-062-261800-
NORTHEAST MONTANA

CITY           SKY/WX    TMP DP  RH WIND       PRES   REMARKS
GLASGOW        SUNNY     64  36  35 W17G28    29.82F
JORDAN           N/A     63  32  31 NW16G24   29.87F
SIDNEY         PTSUNNY   63  37  38 NW21G29   29.80S
WOLF POINT     PTSUNNY   63  36  36 NW18G28   29.81F
MALTA          MOSUNNY   64  41  42 W14G24    29.84F
PLENTYWOOD       N/A     59  36  41 NW29G38   29.74R
POPLAR           N/A     61  36  39 NW21G28   29.80S
SCOBEY           N/A     61  33  34 NW21      29.79R
$$

MTZ028>42-056>058-261800-
SOUTHCENTRAL AND SOUTHEAST MONTANA

CITY           SKY/WX    TMP DP  RH WIND       PRES   REMARKS
BAKER          MOSUNNY   60  36  40 NW21G28   29.87R
BILLINGS       MOSUNNY   56  34  43 VRB3      29.94S
LIVINGSTON     CLOUDY    55  36  48 NE12      29.92F
MILES CITY     MOSUNNY   63  36  36 NW16G23   29.87F
BIG TIMBER     SUNNY     54  37  54 VRB5      29.97S
FORSYTH          N/A     59  37  44 W12       29.89F
LAUREL           N/A     57  36  45 E3        29.94F
ROUNDUP          N/A     61  31  32 N8        29.85S
$$

REGIONAL REPORTS...DAKOTAS

CITY           SKY/WX    TMP DP  RH WIND       PRES   REMARKS
WILLISTON      CLOUDY    59  41  51 W14G21    29.77F
MINOT          CLOUDY    54  45  71 W16       29.71R
DICKINSON      PTSUNNY   59  37  44 NW23G36   29.78F
BEACH          PTSUNNY   57  37  47 NW23G33   29.86S
CROSBY         PTSUNNY   55  43  62 NW21G29   29.72S
TIOGA          CLOUDY    54  46  76 W20G31    29.76R
WATFORD CITY   PTSUNNY   57  41  54 W20       29.78S
BISMARCK       CLOUDY    59  40  49 NW16G23   29.78S
GRAND FORKS    MOSUNNY   67  49  52 W18G25    29.65R
FARGO          MOSUNNY   69  47  45 W16G23    29.69R
BUFFALO SD       N/A     61  36  39 W22G33    29.82S
RAPID CITY     SUNNY     65  34  31 N13G24    29.90F
$$

REGIONAL REPORTS...WYOMING/IDAHO/WASHINGTON

CITY           SKY/WX    TMP DP  RH WIND       PRES   REMARKS
GILLETTE       MOSUNNY   57  32  38 MISG      29.93S
SHERIDAN       MOSUNNY   58  37  45 NW8       29.94S
BUFFALO WY     CLOUDY    54  33  45 N8        29.96R
CODY           CLOUDY    49  30  48 N12       29.95S
YELLOWSTONE LA   N/A     39  28  64 SE5       29.94S
IDAHO FALLS    LGT RAIN  44  43  96 N6        29.87R
SALMON         CLOUDY    54  37  54 CALM      29.89S
BOISE          PTSUNNY   58  43  57 NW7       29.89R
SPOKANE        MOSUNNY   62  41  46 VRB3      29.94F
$$

REGIONAL REPORTS...ALBERTA

CITY           SKY/WX    TMP DP  RH WIND       PRES   REMARKS
EDMONTON       MOSUNNY   63  46  55 SW5       29.75F
CALGARY        MOSUNNY   61  28  29 NW6G20    29.87F
LETHBRIDGE     MOSUNNY   61  39  44 W10G17    29.89F
MEDICINE HAT   MOSUNNY   63  43  48 W12       29.85F
WATERTON GATE    N/A     57  34  41 SW6         N/A
MILK RIVER       N/A     61  37  41 W8          N/A
$$

REGIONAL REPORTS...SASKATCHEWAN

CITY           SKY/WX    TMP DP  RH WIND       PRES   REMARKS
SWIFT CURRENT  PTSUNNY   59  41  51 NW15G24   29.78S
REGINA         PTSUNNY   57  39  51 NW33G43   29.68R
SASKATOON      MOSUNNY   59  41  51 NW23G29   29.67S
CYPRESS HILLS    N/A     52  32  46 NW8G17      N/A
VAL MARIE        N/A     61  34  36 NW18G24     N/A
ROCKGLEN         N/A     55  34  44 NW20G32     N/A
ASSINIBOIA       N/A     63  41  45 W9          N/A
$$




USA.gov is the U.S. government's official web portal to all federal, state and local government web resources and services.